Miscellaneous Local Product
Issued by NWS Hastings, NE

Home | Current Version | Previous Version | Graphics & Text | Print | Product List | Glossary On
Versions: 1 2 3 4 5 6 7 8 9 10 11 12 13 14 15 16 17 18 19 20 21 22 23 24 25 26 27 28 29 30 31 32 33 34 35 36 37 38 39 40 41 42 43 44 45 46 47 48 49 50
506
AXUS43 KGID 061102
MISGRI

GID CWA HOURLY WEATHER ROUNDUP
NATIONAL WEATHER SERVICE HASTINGS NE
500 AM CST TUE DEC 06 2016

NOTE: "FAIR" INDICATES FEW OR NO CLOUDS BELOW 12,000 FEET WITH NO
SIGNIFICANT WEATHER AND/OR OBSTRUCTIONS TO VISIBILITY.

...SOUTH CENTRAL NEBRASKA...

CITY           SKY/WX    TMP DP  RH WIND       PRES   REMARKS
GRAND ISLAND   PTCLDY    20  12  71 NW13      30.00R WCI   7
HASTINGS       CLEAR     20  13  74 NW8       30.00R WCI  10
KEARNEY        PTCLDY    19  10  68 NW5       30.00R WCI  13
ORD            CLEAR     19  10  68 W10       29.95F WCI   7
YORK           CLEAR     21  14  73 NW9       29.99R WCI  11
AURORA         PTCLDY    21  12  68 NW9       29.99R WCI  11
LEXINGTON      CLEAR     21  13  71 NW12      30.00S WCI   9
HOLDREGE       PTCLDY    22  14  71 NW12      30.00R WCI  10
HEBRON         CLEAR     26  16  66 N9        30.01R WCI  16

...NEBRASKA PANHANDLE...

CITY           SKY/WX    TMP DP  RH WIND       PRES   REMARKS
CHADRON        CLEAR      9   2  73 SW6       30.00S WCI  -1
ALLIANCE       CLEAR      2  -3  80 SW12      29.95S WCI -15
SCOTTSBLUFF    CLEAR      6   0  76 NW6       29.98S WCI  -4
SIDNEY         CLEAR     11   3  70 NW14      29.96F WCI  -5

...WESTERN AND NORTH CENTRAL NEBRASKA...

CITY           SKY/WX    TMP DP  RH WIND       PRES   REMARKS
VALENTINE      CLEAR     14   4  64 W12       29.96S WCI   0
AINSWORTH      CLEAR     18   8  64 W17G23    29.94S WCI   3
ONEILL         CLEAR     19   9  63 W23       29.93R WCI   2
BROKEN BOW     CLEAR     16  12  84 CALM      29.96F
IMPERIAL       CLEAR     17   4  56 NW15      30.01R WCI   2
NORTH PLATTE   CLEAR     17   8  67 W9        29.99F WCI   6
MCCOOK         PTCLDY    18  10  71 NW9       30.03R WCI   7

...EASTERN NEBRASKA...

CITY           SKY/WX    TMP DP  RH WIND       PRES   REMARKS
NORFOLK        CLEAR     19   8  62 NW15      29.93S WCI   5
SO SIOUX CITY  CLEAR     22  10  60 NW18G24   29.93S WCI   7
TEKAMAH        CLEAR     24  15  68 W12       29.97R WCI  13
COLUMBUS       CLEAR     21  10  63 NW10      29.97S WCI  10
ALBION         CLEAR     20   9  62 NW13G21   29.95R WCI   8
OMAHA EPPLEY   CLEAR     27  16  63 NW14      29.95R WCI  16
OFFUTT AFB     PTCLDY    28  17  64 NW12      29.95R WCI  18
MILLARD        CLEAR     28  14  55 NW20G29   29.96R WCI  15
LINCOLN        CLEAR     27  12  53 NW14      29.99R WCI  16
NEBRASKA CITY  MOCLDY    30  16  57 NW15      29.95R WCI  19
BEATRICE       PTCLDY    28  15  58 N14G23    29.98R WCI  17
FALLS CITY     CLOUDY    31  20  63 NW15G26   29.94R WCI  20

...NORTHERN KANSAS...

CITY           SKY/WX    TMP DP  RH WIND       PRES   REMARKS
GOODLAND       CLOUDY    11   4  73 NW12      30.01S WCI  -3
HILL CITY      MOCLDY    22  12  65 NW7       30.03S WCI  13
NORTON         SUNNY     19   9  63 W13       30.01R WCI   7
PHILLIPSBURG   PTCLDY    25  16  68 NW13      30.02S WCI  13
SMITH CENTER   CLEAR     19  14  79 NW5       30.02S WCI  13
BELOIT         CLEAR     27  18  69 NW8       30.02R WCI  18
HAYS           CLEAR     24  17  74 N12       30.02S WCI  13
RUSSELL        CLEAR     22  16  78 NW8       30.02R WCI  12
CONCORDIA      CLEAR     27  20  75 NW10      30.01R WCI  17
SALINA         PTCLDY    30  22  72 NW12      30.01R WCI  20
TOPEKA         CLOUDY    34  26  72 NW12      29.93R WCI  25



USA.gov is the U.S. government's official web portal to all federal, state and local government web resources and services.